Weather History for KDUX - October, 2011

Change the Weather History Date:

Friday, October 14, 2011

  Actual Average (KBGD) Record (KBGD)
Temperature  
Mean Temperature 58 °F 61 °F  
Max Temperature 73 °F 74 °F 95 °F (1968)
Min Temperature 42 °F 49 °F 30 °F (1969)
Degree Days  
Heating Degree Days 8 5  
Month to date heating degree days 58  
Since 1 July heating degree days 86  
Cooling Degree Days 0 2  
Month to date cooling degree days 38  
Year to date cooling degree days 1823  
Growing Degree Days 8 (Base 50)    
Moisture  
Dew Point 40 °F    
Average Humidity 55    
Maximum Humidity 87    
Minimum Humidity 27    
Precipitation  
Precipitation 0.00 in 0.06 in 1.39 in (2008)
Month to date precipitation 0.91  
Year to date precipitation 19.30  
Snow  
Snow 0.00 in - 0.00 in (2013)
Month to date snowfall  
Since 1 July snowfall  
Since 1 September snowfall  
Snow Depth -    
Sea Level Pressure  
Sea Level Pressure 29.97 in    
Wind  
Wind Speed 12 mph (North)    
Max Wind Speed 24 mph    
Max Gust Speed 30 mph    
Visibility 10 miles    
Events      
T = Trace of Precipitation, MM = Missing Value Source: NWS Daily Summary

Daily Weather History Graph

Daily Weather History Graph

Search for Another Location

Airport or City:

Trip Planner

Search our weather history database for the weather conditions in past years. The results will help you decide how hot, cold, wet, or windy it might be!

Date:

Astronomy

Oct. 14, 2011 Rise Set
Actual Time 7:53 AM CDT 7:13 PM CDT
Civil Twilight 7:27 AM CDT 7:39 PM CDT
Nautical Twilight 6:58 AM CDT 8:09 PM CDT
Astronomical Twilight 6:28 AM CDT 8:38 PM CDT
Moon 8:36 PM CDT (10/14) 10:17 AM CDT (10/14)
Length of Visible Light 12h 11m
Length of Day
11h 20m
Waning Gibbous, 94% of the Moon is Illuminated
Oct 14
Waning Gibbous
Oct 19
Last Quarter
Oct 26
New
Nov 2
First Quarter
Nov 10
Full

Hourly Weather History & Observations

Time (CDT) Temp. Windchill Dew Point Humidity Pressure Visibility Wind Dir Wind Speed Gust Speed Precip Events Conditions
12:35 AM 55.4 °F - 42.8 °F 63% 29.93 in 10.0 mi SSE 9.2 mph - N/A   Clear
12:55 AM 55.4 °F - 42.8 °F 63% 29.92 in 10.0 mi South 11.5 mph - N/A   Clear
1:15 AM 55.4 °F - 42.8 °F 63% 29.91 in 10.0 mi South 10.4 mph - N/A   Clear
1:35 AM 55.4 °F - 42.8 °F 63% 29.91 in 10.0 mi South 10.4 mph - N/A   Clear
1:55 AM 55.4 °F - 44.6 °F 67% 29.90 in 10.0 mi South 11.5 mph - N/A   Clear
2:15 AM 53.6 °F - 44.6 °F 72% 29.90 in 10.0 mi South 10.4 mph - N/A   Clear
2:35 AM 53.6 °F - 42.8 °F 67% 29.91 in 10.0 mi SSE 9.2 mph - N/A   Clear
2:55 AM 51.8 °F - 42.8 °F 71% 29.90 in 10.0 mi SSE 8.1 mph - N/A   Clear
3:15 AM 51.8 °F - 41.0 °F 67% 29.90 in 10.0 mi South 8.1 mph - N/A   Clear
3:35 AM 50.0 °F - 41.0 °F 71% 29.91 in 10.0 mi SSW 4.6 mph - N/A   Clear
3:55 AM 51.8 °F - 41.0 °F 67% 29.91 in 10.0 mi WSW 4.6 mph - N/A   Clear
4:15 AM 51.8 °F - 41.0 °F 67% 29.90 in 10.0 mi SW 5.8 mph - N/A   Clear
4:35 AM 50.0 °F - 41.0 °F 71% 29.90 in 10.0 mi SW 6.9 mph - N/A   Clear
4:55 AM 46.4 °F 43.5 °F 41.0 °F 81% 29.90 in 10.0 mi West 5.8 mph - N/A   Clear
5:15 AM 42.8 °F 38.6 °F 37.4 °F 81% 29.91 in 10.0 mi NNW 6.9 mph - N/A   Clear
5:35 AM 42.8 °F 40.1 °F 37.4 °F 81% 29.91 in 10.0 mi WNW 4.6 mph - N/A   Clear
5:55 AM 44.6 °F 40.7 °F 39.2 °F 81% 29.91 in 10.0 mi NW 6.9 mph - N/A   Clear
6:15 AM 42.8 °F 41.1 °F 37.4 °F 81% 29.91 in 10.0 mi WNW 3.5 mph - N/A   Clear
6:35 AM 44.6 °F 40.2 °F 39.2 °F 81% 29.91 in 10.0 mi NW 8.1 mph - N/A   Clear
6:55 AM 44.6 °F 40.2 °F 39.2 °F 81% 29.91 in 10.0 mi NW 8.1 mph - N/A   Clear
7:15 AM 44.6 °F 39.7 °F 37.4 °F 76% 29.92 in 10.0 mi NW 9.2 mph - N/A   Clear
7:35 AM 42.8 °F 36.2 °F 39.2 °F 87% 29.93 in 10.0 mi NNW 12.7 mph - N/A   Clear
8:15 AM 44.6 °F 38.8 °F 41.0 °F 87% 29.93 in 10.0 mi North 11.5 mph - N/A   Clear
8:35 AM 48.2 °F - 42.8 °F 82% 29.95 in 10.0 mi North 18.4 mph - N/A   Clear
8:55 AM 50.0 °F - 42.8 °F 76% 29.96 in 10.0 mi North 16.1 mph 19.6 mph N/A   Clear
9:15 AM 51.8 °F - 42.8 °F 71% 29.97 in 10.0 mi North 18.4 mph - N/A   Clear
9:35 AM 51.8 °F - 41.0 °F 67% 29.98 in 10.0 mi North 21.9 mph 27.6 mph N/A   Clear
9:55 AM 53.6 °F - 41.0 °F 62% 29.99 in 10.0 mi North 23.0 mph 28.8 mph N/A   Clear
10:15 AM 55.4 °F - 41.0 °F 58% 30.00 in 10.0 mi North 24.2 mph 29.9 mph N/A   Clear
10:35 AM 55.4 °F - 41.0 °F 58% 30.01 in 10.0 mi North 23.0 mph - N/A   Clear
10:55 AM 59.0 °F - 41.0 °F 51% 30.01 in 10.0 mi North 20.7 mph 27.6 mph N/A   Clear
11:35 AM 62.6 °F - 41.0 °F 45% 30.02 in 10.0 mi North 21.9 mph 29.9 mph N/A   Clear
11:55 AM 62.6 °F - 41.0 °F 45% 30.02 in 10.0 mi North 20.7 mph 27.6 mph N/A   Clear
12:15 PM 64.4 °F - 41.0 °F 42% 30.02 in 10.0 mi North 19.6 mph 27.6 mph N/A   Clear
12:35 PM 64.4 °F - 41.0 °F 42% 30.03 in 10.0 mi NNE 15.0 mph 25.3 mph N/A   Clear
12:55 PM 68.0 °F - 41.0 °F 37% 30.03 in 10.0 mi NNE 16.1 mph 24.2 mph N/A   Clear
1:15 PM 68.0 °F - 41.0 °F 37% 30.02 in 10.0 mi NNE 16.1 mph 24.2 mph N/A   Clear
1:35 PM 69.8 °F - 41.0 °F 35% 30.01 in 10.0 mi NNE 13.8 mph 19.6 mph N/A   Clear
1:55 PM 69.8 °F - 39.2 °F 33% 30.01 in 10.0 mi NNE 13.8 mph 25.3 mph N/A   Clear
2:15 PM 71.6 °F - 39.2 °F 31% 30.00 in 10.0 mi NNE 17.3 mph 26.5 mph N/A   Clear
2:35 PM 71.6 °F - 39.2 °F 31% 30.00 in 10.0 mi NNE 15.0 mph 20.7 mph N/A   Clear
2:55 PM 71.6 °F - 39.2 °F 31% 29.99 in 10.0 mi North 15.0 mph 20.7 mph N/A   Clear
3:15 PM 71.6 °F - 37.4 °F 29% 29.99 in 10.0 mi NNE 16.1 mph 20.7 mph N/A   Clear
3:35 PM 71.6 °F - 37.4 °F 29% 29.99 in 10.0 mi NNE 13.8 mph 19.6 mph N/A   Clear
3:55 PM 71.6 °F - 37.4 °F 29% 29.98 in 10.0 mi North 16.1 mph 25.3 mph N/A   Clear
4:15 PM 73.4 °F - 37.4 °F 27% 30.00 in 10.0 mi NNE 15.0 mph 21.9 mph N/A   Clear
4:35 PM 71.6 °F - 37.4 °F 29% 30.00 in 10.0 mi NE 13.8 mph 21.9 mph N/A   Clear
4:55 PM 73.4 °F - 37.4 °F 27% 30.00 in 10.0 mi NE 15.0 mph 20.7 mph N/A   Clear
5:15 PM 71.6 °F - 37.4 °F 29% 30.01 in 10.0 mi NE 15.0 mph 19.6 mph N/A   Clear
5:35 PM 71.6 °F - 39.2 °F 31% 30.02 in 10.0 mi NE 12.7 mph - N/A   Clear
5:55 PM 69.8 °F - 37.4 °F 31% 30.02 in 10.0 mi NNE 15.0 mph - N/A   Clear
6:15 PM 69.8 °F - 37.4 °F 31% 30.03 in 10.0 mi NE 13.8 mph - N/A   Clear
6:35 PM 68.0 °F - 37.4 °F 33% 30.03 in 10.0 mi ENE 13.8 mph 18.4 mph N/A   Clear
6:55 PM 68.0 °F - 37.4 °F 33% 30.04 in 10.0 mi NE 10.4 mph - N/A   Clear
7:15 PM 64.4 °F - 37.4 °F 37% 30.05 in 10.0 mi NE 10.4 mph - N/A   Clear
7:35 PM 62.6 °F - 39.2 °F 42% 30.06 in 10.0 mi NE 6.9 mph - N/A   Clear
7:55 PM 60.8 °F - 39.2 °F 45% 30.06 in 10.0 mi NE 8.1 mph - N/A   Clear
8:15 PM 60.8 °F - 37.4 °F 42% 30.07 in 7.0 mi NE 8.1 mph - N/A   Clear
8:35 PM 59.0 °F - 37.4 °F 45% 30.07 in 10.0 mi NE 8.1 mph - N/A   Clear
8:55 PM 59.0 °F - 37.4 °F 45% 30.07 in 10.0 mi NE 8.1 mph - N/A   Clear
9:15 PM 59.0 °F - 37.4 °F 45% 30.07 in 10.0 mi ENE 10.4 mph - N/A   Clear
9:55 PM 57.2 °F - 37.4 °F 48% 30.08 in 10.0 mi ENE 10.4 mph - N/A   Clear
10:15 PM 55.4 °F - 37.4 °F 51% 30.10 in 10.0 mi ENE 9.2 mph - N/A   Clear
10:35 PM 55.4 °F - 37.4 °F 51% 30.11 in 10.0 mi ENE 10.4 mph - N/A   Clear
10:55 PM 55.4 °F - 39.2 °F 54% 30.11 in 10.0 mi ENE 10.4 mph - N/A   Clear
11:15 PM 53.6 °F - 39.2 °F 58% 30.11 in 10.0 mi ENE 8.1 mph - N/A   Clear
11:35 PM 53.6 °F - 39.2 °F 58% 30.12 in 10.0 mi NE 6.9 mph - N/A   Clear
11:55 PM 51.8 °F - 37.4 °F 58% 30.12 in 10.0 mi Calm Calm - N/A   Clear